| time (UTC) | temp F | wind direction | speed knots | gust knots | rain 1hr in | rain 24hr in | rain mn in | humidity % | barometer mb |
| 20260507070545 | 57 | 46 | 0.9 | 8.7 | 0.02 | 0.18 | 0.10 | 95 | 1007.2 |
| 20260507070101 | 58 | 68 | 1.7 | 7.0 | 0.04 | 0.18 | 0.10 | 95 | 1007.0 |
| 20260507065543 | 58 | 354 | 0.9 | 4.3 | 0.04 | 0.18 | 0.10 | 95 | 1006.6 |
| 20260507065043 | 58 | 353 | 0.9 | 3.5 | 0.06 | 0.18 | 0.10 | 95 | 1006.6 |
| 20260507064550 | 58 | 27 | 0.9 | 4.3 | 0.07 | 0.18 | 0.10 | 95 | 1006.7 |
| 20260507064041 | 59 | 263 | 0.0 | 4.3 | 0.08 | 0.18 | 0.10 | 96 | 1006.7 |
| 20260507063540 | 59 | 146 | 0.0 | 4.3 | 0.09 | 0.18 | 0.10 | 96 | 1006.5 |
| 20260507063040 | 59 | 22 | 0.9 | 4.3 | 0.09 | 0.18 | 0.10 | 96 | 1006.5 |
| 20260507062541 | 59 | 113 | 0.9 | 4.3 | 0.10 | 0.18 | 0.10 | 96 | 1006.8 |
| 20260507062038 | 60 | 65 | 0.0 | 3.5 | 0.10 | 0.18 | 0.10 | 96 | 1007.0 |
| 20260507061538 | 60 | 250 | 0.0 | 1.7 | 0.10 | 0.18 | 0.10 | 95 | 1006.9 |
| 20260507061037 | 60 | 22 | 0.0 | 3.5 | 0.10 | 0.18 | 0.10 | 95 | 1006.2 |
| 20260507060534 | 60 | 29 | 0.0 | 1.7 | 0.08 | 0.16 | 0.08 | 95 | 1006.6 |
| 20260507060039 | 60 | 340 | 0.0 | 4.3 | 0.06 | 0.14 | 0.06 | 95 | 1007.0 |
| 20260507055533 | 61 | 91 | 0.9 | 6.1 | 0.05 | 0.13 | 0.05 | 94 | 1007.4 |
| 20260507055033 | 61 | 112 | 0.9 | 6.1 | 0.04 | 0.12 | 0.04 | 94 | 1007.2 |
| 20260507054537 | 61 | 72 | 0.9 | 5.2 | 0.03 | 0.11 | 0.03 | 93 | 1007.1 |
| 20260507054034 | 62 | 251 | 0.0 | 8.7 | 0.02 | 0.10 | 0.02 | 93 | 1007.2 |
| 20260507053530 | 62 | 265 | 0.9 | 8.7 | 0.01 | 0.09 | 0.01 | 91 | 1007.4 |
| 20260507053029 | 63 | 71 | 0.9 | 9.6 | 0.00 | 0.08 | 0.00 | 89 | 1007.0 |
| 20260507052527 | 63 | 332 | 3.5 | 9.6 | 0.00 | 0.08 | 0.00 | 88 | 1007.1 |
| 20260507052027 | 64 | 55 | 0.9 | 5.2 | 0.00 | 0.08 | 0.00 | 87 | 1007.4 |
| 20260507051526 | 64 | 260 | 0.9 | 5.2 | 0.00 | 0.08 | 0.00 | 89 | 1007.6 |
| 20260507051025 | 65 | 211 | 0.0 | 4.3 | 0.00 | 0.08 | 0.00 | 90 | 1007.3 |
| 20260507050523 | 65 | 223 | 0.0 | 2.6 | 0.00 | 0.08 | 0.00 | 90 | 1007.3 |
| 20260507050038 | 65 | 271 | 0.0 | 2.6 | 0.00 | 0.08 | 0.00 | 91 | 1007.2 |
| 20260507045522 | 65 | 294 | 0.0 | 2.6 | 0.00 | 0.08 | 0.00 | 91 | 1007.1 |
| 20260507045021 | 65 | 171 | 0.0 | 3.5 | 0.00 | 0.08 | 0.00 | 92 | 1007.1 |
| 20260507044522 | 65 | 174 | 0.9 | 3.5 | 0.00 | 0.08 | 0.00 | 92 | 1007.1 |
| 20260507044020 | 65 | 276 | 0.0 | 2.6 | 0.00 | 0.08 | 0.00 | 92 | 1007.1 |
| 20260507043520 | 65 | 290 | 0.0 | 3.5 | 0.00 | 0.08 | 0.00 | 92 | 1007.0 |
| 20260507043019 | 65 | 290 | 0.0 | 3.5 | 0.00 | 0.08 | 0.00 | 92 | 1006.9 |
| 20260507042519 | 65 | 272 | 0.0 | 2.6 | 0.00 | 0.08 | 0.00 | 92 | 1006.9 |
| 20260507042018 | 65 | 141 | 0.0 | 1.7 | 0.00 | 0.08 | 0.00 | 92 | 1006.7 |
| 20260507041517 | 65 | 155 | 0.0 | 1.7 | 0.00 | 0.08 | 0.00 | 92 | 1006.5 |
| 20260507041016 | 65 | 124 | 0.0 | 2.6 | 0.00 | 0.08 | 0.00 | 92 | 1006.5 |
| 20260507040515 | 65 | 233 | 0.0 | 2.6 | 0.00 | 0.08 | 0.00 | 92 | 1006.6 |
| 20260507040013 | 65 | 165 | 0.0 | 1.7 | 0.00 | 0.08 | 0.00 | 93 | 1006.7 |
| 20260507035513 | 65 | 144 | 0.0 | 1.7 | 0.00 | 0.08 | 0.08 | 93 | 1006.8 |
| 20260507035014 | 64 | 132 | 0.0 | 1.7 | 0.00 | 0.08 | 0.08 | 93 | 1006.7 |
| 20260507034513 | 64 | 150 | 0.0 | 1.7 | 0.00 | 0.08 | 0.08 | 94 | 1006.7 |
| 20260507034013 | 64 | 186 | 0.0 | 0.9 | 0.00 | 0.08 | 0.08 | 94 | 1006.6 |
| 20260507033513 | 64 | 186 | 0.0 | 0.0 | 0.00 | 0.08 | 0.08 | 94 | 1006.6 |
| 20260507033014 | 64 | 186 | 0.0 | 0.0 | 0.00 | 0.08 | 0.08 | 94 | 1006.4 |
| 20260507032513 | 64 | 186 | 0.0 | 0.0 | 0.00 | 0.08 | 0.08 | 94 | 1006.4 |
| 20260507032013 | 64 | 186 | 0.0 | 0.0 | 0.00 | 0.08 | 0.08 | 94 | 1006.3 |
| 20260507031513 | 64 | 186 | 0.0 | 0.0 | 0.00 | 0.08 | 0.08 | 94 | 1006.3 |
| 20260507031015 | 64 | 186 | 0.0 | 0.0 | 0.00 | 0.08 | 0.08 | 94 | 1006.4 |
| 20260507030512 | 64 | 186 | 0.0 | 0.0 | 0.00 | 0.08 | 0.08 | 94 | 1006.4 |
| 20260507030016 | 64 | 186 | 0.0 | 0.0 | 0.00 | 0.08 | 0.08 | 94 | 1006.3 |
| 20260507025512 | 64 | 186 | 0.0 | 1.7 | 0.00 | 0.08 | 0.08 | 94 | 1006.2 |
| 20260507025013 | 64 | 188 | 0.0 | 1.7 | 0.00 | 0.08 | 0.08 | 95 | 1006.3 |
| 20260507024512 | 63 | 189 | 0.0 | 1.7 | 0.00 | 0.08 | 0.08 | 96 | 1006.5 |
| 20260507024012 | 63 | 195 | 0.0 | 1.7 | 0.00 | 0.08 | 0.08 | 96 | 1006.6 |
| 20260507023513 | 63 | 126 | 0.0 | 0.0 | 0.00 | 0.08 | 0.08 | 96 | 1006.7 |
| 20260507023011 | 62 | 126 | 0.0 | 0.0 | 0.00 | 0.08 | 0.08 | 96 | 1006.8 |
| 20260507022511 | 62 | 126 | 0.0 | 0.0 | 0.00 | 0.08 | 0.08 | 96 | 1006.8 |
| 20260507022013 | 62 | 126 | 0.0 | 0.0 | 0.00 | 0.08 | 0.08 | 96 | 1006.7 |
| 20260507021511 | 62 | 126 | 0.0 | 0.0 | 0.00 | 0.08 | 0.08 | 96 | 1006.8 |
| 20260507021011 | 62 | 126 | 0.0 | 0.0 | 0.00 | 0.08 | 0.08 | 96 | 1006.7 |
| 20260507020510 | 62 | 126 | 0.0 | 0.0 | 0.00 | 0.08 | 0.08 | 96 | 1006.7 |
| 20260507020011 | 62 | 126 | 0.0 | 0.0 | 0.00 | 0.08 | 0.08 | 95 | 1006.8 |
| 20260507015510 | 62 | 126 | 0.0 | 0.0 | 0.00 | 0.08 | 0.08 | 95 | 1006.9 |
| 20260507015012 | 62 | 126 | 0.0 | 0.0 | 0.00 | 0.08 | 0.08 | 95 | 1007.0 |
| 20260507014509 | 62 | 126 | 0.0 | 0.0 | 0.00 | 0.08 | 0.08 | 95 | 1007.0 |
| 20260507014009 | 61 | 126 | 0.0 | 0.0 | 0.00 | 0.08 | 0.08 | 94 | 1007.0 |
| 20260507013507 | 61 | 126 | 0.0 | 0.0 | 0.00 | 0.08 | 0.08 | 94 | 1007.3 |
| 20260507013007 | 62 | 126 | 0.0 | 0.0 | 0.00 | 0.08 | 0.08 | 94 | 1007.3 |
| 20260507012507 | 62 | 127 | 0.0 | 0.0 | 0.00 | 0.08 | 0.08 | 93 | 1007.3 |
| 20260507012006 | 62 | 126 | 0.0 | 0.0 | 0.00 | 0.08 | 0.08 | 93 | 1007.1 |
| 20260507011504 | 62 | 126 | 0.0 | 0.0 | 0.00 | 0.08 | 0.08 | 92 | 1007.0 |
| 20260507011004 | 63 | 126 | 0.0 | 0.0 | 0.00 | 0.08 | 0.08 | 92 | 1006.9 |
| 20260507010506 | 63 | 126 | 0.0 | 0.0 | 0.00 | 0.08 | 0.08 | 92 | 1006.9 |
| 20260507010003 | 63 | 126 | 0.0 | 0.0 | 0.00 | 0.08 | 0.08 | 91 | 1006.9 |
| 20260507005503 | 64 | 126 | 0.0 | 0.0 | 0.00 | 0.08 | 0.08 | 91 | 1006.6 |
| 20260507005002 | 64 | 126 | 0.0 | 0.0 | 0.00 | 0.08 | 0.08 | 90 | 1006.9 |
| 20260507004504 | 64 | 126 | 0.0 | 0.0 | 0.00 | 0.08 | 0.08 | 90 | 1006.9 |
| 20260507004003 | 65 | 126 | 0.0 | 0.0 | 0.00 | 0.08 | 0.08 | 89 | 1006.8 |
| 20260507003503 | 65 | 126 | 0.0 | 0.0 | 0.00 | 0.08 | 0.08 | 89 | 1006.6 |
| 20260507003002 | 66 | 126 | 0.0 | 0.0 | 0.00 | 0.08 | 0.08 | 88 | 1006.6 |
| 20260507002502 | 66 | 126 | 0.0 | 0.0 | 0.00 | 0.08 | 0.08 | 88 | 1006.6 |
| 20260507002002 | 66 | 126 | 0.0 | 0.0 | 0.00 | 0.08 | 0.08 | 87 | 1006.6 |
| 20260507001500 | 66 | 126 | 0.0 | 0.0 | 0.00 | 0.08 | 0.08 | 87 | 1006.6 |
| 20260507001001 | 67 | 126 | 0.0 | 1.7 | 0.00 | 0.08 | 0.08 | 87 | 1006.7 |
| 20260507000603 | 67 | 126 | 0.0 | 1.7 | 0.00 | 0.08 | 0.08 | 87 | 1006.5 |
| 20260507000125 | 67 | 126 | 0.0 | 1.7 | 0.00 | 0.08 | 0.08 | 86 | 1006.4 |
| 20260506235601 | 67 | 287 | 0.0 | 2.6 | 0.00 | 0.08 | 0.08 | 86 | 1006.5 |
| 20260506235102 | 67 | 287 | 0.0 | 3.5 | 0.00 | 0.08 | 0.08 | 86 | 1006.3 |
| 20260506234621 | 67 | 139 | 0.0 | 3.5 | 0.00 | 0.08 | 0.08 | 85 | 1006.3 |
| 20260506234058 | 68 | 223 | 0.0 | 4.3 | 0.00 | 0.08 | 0.08 | 85 | 1006.2 |
| 20260506233601 | 68 | 164 | 0.0 | 4.3 | 0.00 | 0.08 | 0.08 | 85 | 1006.1 |
| 20260506233058 | 68 | 157 | 0.9 | 3.5 | 0.00 | 0.08 | 0.08 | 85 | 1006.2 |
| 20260506232557 | 68 | 210 | 0.0 | 4.3 | 0.00 | 0.08 | 0.08 | 85 | 1006.1 |
| 20260506232057 | 68 | 143 | 0.0 | 4.3 | 0.00 | 0.08 | 0.08 | 84 | 1006.1 |
| 20260506231557 | 68 | 238 | 0.9 | 5.2 | 0.00 | 0.08 | 0.08 | 84 | 1006.0 |
| 20260506231059 | 68 | 295 | 0.0 | 4.3 | 0.00 | 0.08 | 0.08 | 84 | 1006.2 |
| 20260506230557 | 68 | 122 | 0.9 | 4.3 | 0.00 | 0.08 | 0.08 | 84 | 1006.0 |
| 20260506230103 | 68 | 214 | 0.0 | 5.2 | 0.00 | 0.08 | 0.08 | 84 | 1006.1 |
| 20260506225556 | 68 | 132 | 0.9 | 5.2 | 0.00 | 0.08 | 0.08 | 83 | 1006.2 |
| 20260506225056 | 68 | 226 | 0.0 | 6.1 | 0.00 | 0.08 | 0.08 | 84 | 1006.3 |
| 20260506224556 | 68 | 143 | 1.7 | 7.0 | 0.00 | 0.08 | 0.08 | 83 | 1006.1 |
| 20260506224055 | 68 | 199 | 1.7 | 7.0 | 0.00 | 0.08 | 0.08 | 83 | 1006.1 |
| 20260506223559 | 69 | 303 | 0.9 | 5.2 | 0.00 | 0.08 | 0.08 | 83 | 1006.1 |
| 20260506223103 | 69 | 242 | 1.7 | 6.1 | 0.00 | 0.08 | 0.08 | 83 | 1006.1 |
| 20260506222556 | 69 | 143 | 1.7 | 8.7 | 0.00 | 0.08 | 0.08 | 83 | 1006.1 |
| 20260506222056 | 69 | 262 | 3.5 | 12.2 | 0.00 | 0.08 | 0.08 | 82 | 1006.2 |
| 20260506221603 | 69 | 161 | 2.6 | 8.7 | 0.00 | 0.08 | 0.08 | 82 | 1006.0 |
| 20260506221056 | 69 | 224 | 3.5 | 9.6 | 0.00 | 0.08 | 0.08 | 82 | 1006.1 |
| 20260506220555 | 69 | 143 | 1.7 | 9.6 | 0.00 | 0.08 | 0.08 | 82 | 1006.1 |
| 20260506220056 | 69 | 290 | 1.7 | 9.6 | 0.00 | 0.08 | 0.08 | 82 | 1006.1 |
| 20260506215554 | 69 | 136 | 1.7 | 9.6 | 0.00 | 0.08 | 0.08 | 82 | 1006.2 |
| 20260506215054 | 69 | 174 | 2.6 | 7.8 | 0.00 | 0.08 | 0.08 | 82 | 1006.2 |
| 20260506214600 | 69 | 276 | 2.6 | 9.6 | 0.00 | 0.08 | 0.08 | 82 | 1006.2 |
| 20260506214054 | 69 | 142 | 2.6 | 9.6 | 0.00 | 0.08 | 0.08 | 82 | 1006.0 |
| 20260506213557 | 69 | 136 | 3.5 | 8.7 | 0.00 | 0.08 | 0.08 | 82 | 1005.9 |
| 20260506213059 | 69 | 141 | 1.7 | 10.4 | 0.00 | 0.08 | 0.08 | 82 | 1005.9 |
| 20260506212555 | 69 | 273 | 3.5 | 10.4 | 0.00 | 0.08 | 0.08 | 82 | 1005.9 |
| 20260506212055 | 69 | 200 | 3.5 | 11.3 | 0.00 | 0.08 | 0.08 | 82 | 1005.9 |
| 20260506211556 | 69 | 143 | 3.5 | 11.3 | 0.00 | 0.08 | 0.08 | 82 | 1005.8 |
| 20260506211055 | 69 | 139 | 4.3 | 10.4 | 0.00 | 0.08 | 0.08 | 81 | 1005.9 |
| 20260506210553 | 69 | 216 | 3.5 | 10.4 | 0.00 | 0.08 | 0.08 | 81 | 1005.8 |
| 20260506210053 | 69 | 238 | 3.5 | 10.4 | 0.00 | 0.08 | 0.08 | 82 | 1005.7 |
| 20260506205552 | 69 | 177 | 4.3 | 9.6 | 0.00 | 0.08 | 0.08 | 82 | 1005.6 |
| 20260506205053 | 69 | 240 | 3.5 | 9.6 | 0.00 | 0.08 | 0.08 | 82 | 1005.7 |
| 20260506204553 | 69 | 127 | 3.5 | 7.8 | 0.00 | 0.08 | 0.08 | 82 | 1005.7 |
| 20260506204052 | 69 | 176 | 1.7 | 12.2 | 0.00 | 0.08 | 0.08 | 82 | 1005.9 |
| 20260506203552 | 69 | 139 | 4.3 | 12.2 | 0.00 | 0.08 | 0.08 | 82 | 1005.7 |
| 20260506203053 | 69 | 172 | 3.5 | 15.6 | 0.00 | 0.08 | 0.08 | 82 | 1005.7 |
| 20260506202552 | 69 | 214 | 3.5 | 11.3 | 0.00 | 0.08 | 0.08 | 82 | 1005.6 |
| 20260506202052 | 69 | 241 | 3.5 | 11.3 | 0.00 | 0.08 | 0.08 | 82 | 1005.5 |
| 20260506201551 | 69 | 166 | 3.5 | 10.4 | 0.00 | 0.08 | 0.08 | 82 | 1005.8 |
| 20260506201051 | 69 | 222 | 6.1 | 10.4 | 0.00 | 0.08 | 0.08 | 81 | 1005.7 |
| 20260506200550 | 68 | 134 | 2.6 | 10.4 | 0.00 | 0.08 | 0.08 | 82 | 1005.7 |
| 20260506200049 | 68 | 203 | 3.5 | 14.8 | 0.00 | 0.08 | 0.08 | 81 | 1005.9 |
| 20260506195548 | 68 | 136 | 2.6 | 14.8 | 0.00 | 0.08 | 0.08 | 82 | 1006.0 |
| 20260506195048 | 68 | 197 | 3.5 | 12.2 | 0.00 | 0.08 | 0.08 | 82 | 1006.0 |
| 20260506194548 | 69 | 145 | 4.3 | 11.3 | 0.00 | 0.08 | 0.08 | 81 | 1006.2 |
| 20260506194047 | 69 | 296 | 3.5 | 9.6 | 0.00 | 0.08 | 0.08 | 81 | 1006.2 |
| 20260506193547 | 69 | 172 | 2.6 | 7.0 | 0.00 | 0.08 | 0.08 | 81 | 1006.2 |
| 20260506193052 | 69 | 180 | 1.7 | 8.7 | 0.00 | 0.08 | 0.08 | 81 | 1006.3 |
| 20260506192547 | 69 | 145 | 2.6 | 8.7 | 0.00 | 0.08 | 0.08 | 81 | 1006.3 |
| 20260506192048 | 69 | 162 | 2.6 | 8.7 | 0.00 | 0.08 | 0.08 | 81 | 1006.3 |
| 20260506191547 | 69 | 274 | 2.6 | 13.0 | 0.00 | 0.08 | 0.08 | 81 | 1006.2 |
| 20260506191050 | 69 | 149 | 3.5 | 13.9 | 0.00 | 0.08 | 0.08 | 80 | 1006.3 |
| 20260506190547 | 69 | 215 | 5.2 | 13.9 | 0.00 | 0.08 | 0.08 | 80 | 1006.3 |
| 20260506190046 | 69 | 214 | 3.5 | 11.3 | 0.00 | 0.08 | 0.08 | 81 | 1006.2 |
| 20260506185544 | 68 | 123 | 3.5 | 12.2 | 0.00 | 0.08 | 0.08 | 81 | 1006.4 |
| 20260506185043 | 68 | 226 | 5.2 | 12.2 | 0.00 | 0.08 | 0.08 | 81 | 1006.4 |
| 20260506184543 | 68 | 138 | 5.2 | 11.3 | 0.00 | 0.08 | 0.08 | 81 | 1006.5 |
| 20260506184042 | 68 | 243 | 3.5 | 11.3 | 0.00 | 0.08 | 0.08 | 81 | 1006.7 |
| 20260506183542 | 68 | 252 | 4.3 | 12.2 | 0.00 | 0.08 | 0.08 | 81 | 1007.0 |
| 20260506183041 | 68 | 195 | 4.3 | 13.9 | 0.00 | 0.08 | 0.08 | 81 | 1007.0 |
| 20260506182544 | 68 | 172 | 7.0 | 17.4 | 0.00 | 0.08 | 0.08 | 81 | 1007.1 |
| 20260506182040 | 68 | 108 | 3.5 | 17.4 | 0.00 | 0.08 | 0.08 | 81 | 1006.8 |
| 20260506181555 | 68 | 136 | 4.3 | 12.2 | 0.00 | 0.08 | 0.08 | 81 | 1007.0 |
| 20260506181040 | 68 | 177 | 3.5 | 13.9 | 0.00 | 0.08 | 0.08 | 82 | 1007.0 |
| 20260506180539 | 68 | 70 | 4.3 | 13.9 | 0.00 | 0.08 | 0.08 | 83 | 1007.1 |
| 20260506180039 | 67 | 106 | 5.2 | 12.2 | 0.00 | 0.08 | 0.08 | 83 | 1007.1 |
| 20260506175538 | 67 | 163 | 3.5 | 12.2 | 0.00 | 0.08 | 0.08 | 84 | 1007.2 |
| 20260506175038 | 67 | 158 | 2.6 | 13.0 | 0.00 | 0.08 | 0.08 | 84 | 1007.2 |
| 20260506174539 | 67 | 157 | 4.3 | 13.0 | 0.00 | 0.08 | 0.08 | 84 | 1007.5 |
| 20260506174039 | 67 | 198 | 5.2 | 10.4 | 0.00 | 0.08 | 0.08 | 84 | 1007.3 |
| 20260506173539 | 67 | 136 | 3.5 | 11.3 | 0.00 | 0.08 | 0.08 | 85 | 1007.4 |
| 20260506173103 | 66 | 153 | 5.2 | 13.0 | 0.00 | 0.08 | 0.08 | 86 | 1007.2 |
| 20260506172542 | 66 | 189 | 3.5 | 13.0 | 0.00 | 0.08 | 0.08 | 88 | 1007.1 |
| 20260506172037 | 65 | 169 | 2.6 | 11.3 | 0.01 | 0.08 | 0.08 | 89 | 1007.2 |
| 20260506171542 | 65 | 212 | 3.5 | 11.3 | 0.01 | 0.08 | 0.08 | 89 | 1007.1 |
| 20260506171037 | 65 | 139 | 4.3 | 10.4 | 0.03 | 0.08 | 0.08 | 88 | 1007.5 |
| 20260506170536 | 65 | 204 | 2.6 | 13.9 | 0.04 | 0.08 | 0.08 | 89 | 1007.4 |
| 20260506170051 | 65 | 110 | 5.2 | 13.9 | 0.04 | 0.08 | 0.08 | 89 | 1007.2 |
| 20260506165534 | 65 | 184 | 4.3 | 13.0 | 0.05 | 0.08 | 0.08 | 89 | 1007.5 |
| 20260506165034 | 65 | 176 | 5.2 | 13.0 | 0.05 | 0.08 | 0.08 | 89 | 1007.6 |
| 20260506164533 | 65 | 105 | 2.6 | 7.8 | 0.05 | 0.08 | 0.08 | 91 | 1007.7 |
| 20260506164036 | 65 | 161 | 2.6 | 8.7 | 0.06 | 0.08 | 0.08 | 92 | 1007.6 |
| 20260506163534 | 64 | 165 | 3.5 | 8.7 | 0.06 | 0.08 | 0.08 | 93 | 1007.6 |
| 20260506163037 | 63 | 169 | 1.7 | 8.7 | 0.06 | 0.08 | 0.08 | 93 | 1007.7 |
| 20260506162535 | 63 | 247 | 2.6 | 8.7 | 0.06 | 0.08 | 0.08 | 92 | 1007.8 |
| 20260506162031 | 63 | 174 | 2.6 | 8.7 | 0.05 | 0.07 | 0.07 | 92 | 1007.9 |
| 20260506161531 | 63 | 130 | 2.6 | 10.4 | 0.06 | 0.07 | 0.07 | 91 | 1007.9 |
| 20260506161028 | 64 | 180 | 3.5 | 10.4 | 0.04 | 0.05 | 0.05 | 91 | 1008.0 |
| 20260506160528 | 64 | 198 | 2.6 | 7.8 | 0.03 | 0.04 | 0.04 | 91 | 1008.1 |
| 20260506160027 | 64 | 129 | 0.9 | 7.0 | 0.04 | 0.04 | 0.04 | 91 | 1008.2 |
| 20260506155527 | 63 | 102 | 1.7 | 7.0 | 0.03 | 0.03 | 0.03 | 90 | 1008.5 |
| 20260506155026 | 63 | 219 | 1.7 | 7.0 | 0.03 | 0.03 | 0.03 | 90 | 1008.6 |
| 20260506154526 | 63 | 110 | 1.7 | 6.1 | 0.03 | 0.03 | 0.03 | 89 | 1008.5 |
| 20260506154027 | 64 | 141 | 0.9 | 7.8 | 0.02 | 0.02 | 0.02 | 89 | 1008.7 |
| 20260506153525 | 64 | 155 | 2.6 | 7.8 | 0.02 | 0.02 | 0.02 | 89 | 1008.8 |
| 20260506153026 | 64 | 140 | 1.7 | 6.1 | 0.02 | 0.02 | 0.02 | 89 | 1008.8 |
| 20260506152524 | 64 | 191 | 1.7 | 6.1 | 0.02 | 0.02 | 0.02 | 88 | 1008.8 |
| 20260506152024 | 64 | 139 | 2.6 | 7.0 | 0.01 | 0.01 | 0.01 | 87 | 1008.9 |
| 20260506151524 | 64 | 174 | 1.7 | 7.0 | 0.01 | 0.01 | 0.01 | 86 | 1008.9 |
| 20260506151024 | 65 | 227 | 2.6 | 6.1 | 0.01 | 0.01 | 0.01 | 85 | 1008.9 |
| 20260506150523 | 65 | 166 | 2.6 | 7.0 | 0.01 | 0.01 | 0.01 | 84 | 1008.9 |
| 20260506150022 | 65 | 158 | 2.6 | 7.0 | 0.00 | 0.00 | 0.00 | 84 | 1008.9 |
| 20260506145522 | 65 | 171 | 0.9 | 7.8 | 0.00 | 0.00 | 0.00 | 83 | 1008.9 |
| 20260506145022 | 65 | 178 | 1.7 | 9.6 | 0.00 | 0.00 | 0.00 | 82 | 1008.9 |
| 20260506144521 | 66 | 144 | 1.7 | 9.6 | 0.00 | 0.00 | 0.00 | 82 | 1009.0 |
| 20260506144024 | 66 | 256 | 1.7 | 7.8 | 0.00 | 0.00 | 0.00 | 81 | 1009.0 |
| 20260506143521 | 66 | 101 | 2.6 | 9.6 | 0.00 | 0.00 | 0.00 | 80 | 1009.0 |
| 20260506143026 | 67 | 136 | 3.5 | 9.6 | 0.00 | 0.00 | 0.00 | 78 | 1008.8 |
| 20260506142520 | 67 | 192 | 3.5 | 7.8 | 0.00 | 0.00 | 0.00 | 77 | 1008.8 |
| 20260506142020 | 67 | 135 | 3.5 | 10.4 | 0.00 | 0.00 | 0.00 | 76 | 1009.0 |
| 20260506141520 | 67 | 200 | 3.5 | 10.4 | 0.00 | 0.00 | 0.00 | 76 | 1008.9 |
| 20260506141020 | 68 | 187 | 2.6 | 10.4 | 0.00 | 0.00 | 0.00 | 75 | 1008.9 |
| 20260506140520 | 68 | 161 | 1.7 | 10.4 | 0.00 | 0.00 | 0.00 | 75 | 1008.8 |
| 20260506140021 | 68 | 212 | 2.6 | 11.3 | 0.00 | 0.00 | 0.00 | 74 | 1008.7 |
| 20260506135518 | 68 | 173 | 3.5 | 11.3 | 0.00 | 0.00 | 0.00 | 75 | 1008.8 |
| 20260506135020 | 68 | 106 | 4.3 | 11.3 | 0.00 | 0.00 | 0.00 | 75 | 1008.6 |
| 20260506134519 | 68 | 121 | 5.2 | 11.3 | 0.00 | 0.00 | 0.00 | 74 | 1008.7 |
| 20260506134019 | 68 | 185 | 3.5 | 10.4 | 0.00 | 0.00 | 0.00 | 74 | 1008.7 |
| 20260506133521 | 68 | 158 | 2.6 | 11.3 | 0.00 | 0.00 | 0.00 | 74 | 1008.6 |
| 20260506133018 | 68 | 243 | 5.2 | 11.3 | 0.00 | 0.00 | 0.00 | 74 | 1008.6 |
| 20260506132518 | 68 | 143 | 2.6 | 11.3 | 0.00 | 0.00 | 0.00 | 74 | 1008.6 |
| 20260506132021 | 68 | 181 | 0.0 | 8.7 | 0.00 | 0.00 | 0.00 | 75 | 1008.7 |
| 20260506131518 | 68 | 193 | 3.5 | 10.4 | 0.00 | 0.00 | 0.00 | 74 | 1008.8 |
| 20260506131019 | 67 | 184 | 3.5 | 9.6 | 0.00 | 0.00 | 0.00 | 74 | 1008.8 |
| 20260506130517 | 67 | 199 | 2.6 | 9.6 | 0.00 | 0.00 | 0.00 | 74 | 1008.8 |
| 20260506130017 | 67 | 195 | 1.7 | 7.8 | 0.00 | 0.00 | 0.00 | 75 | 1008.7 |
| 20260506125516 | 67 | 166 | 4.3 | 7.8 | 0.00 | 0.00 | 0.00 | 75 | 1008.7 |
| 20260506125016 | 67 | 153 | 3.5 | 8.7 | 0.00 | 0.00 | 0.00 | 75 | 1008.7 |
| 20260506124518 | 67 | 124 | 2.6 | 12.2 | 0.00 | 0.00 | 0.00 | 75 | 1008.7 |
| 20260506124017 | 67 | 152 | 3.5 | 12.2 | 0.00 | 0.00 | 0.00 | 75 | 1008.8 |
| 20260506123516 | 67 | 243 | 3.5 | 13.0 | 0.00 | 0.00 | 0.00 | 75 | 1009.0 |
| 20260506123016 | 67 | 152 | 4.3 | 13.0 | 0.00 | 0.00 | 0.00 | 75 | 1009.0 |
| 20260506122516 | 67 | 141 | 3.5 | 10.4 | 0.00 | 0.00 | 0.00 | 75 | 1009.1 |
| 20260506122021 | 67 | 240 | 3.5 | 10.4 | 0.00 | 0.00 | 0.00 | 75 | 1009.2 |
| 20260506121515 | 67 | 136 | 1.7 | 12.2 | 0.00 | 0.00 | 0.00 | 75 | 1009.1 |
| 20260506121014 | 66 | 285 | 1.7 | 12.2 | 0.00 | 0.00 | 0.00 | 76 | 1009.2 |
| 20260506120514 | 66 | 162 | 4.3 | 13.0 | 0.00 | 0.00 | 0.00 | 76 | 1009.2 |
| 20260506120014 | 66 | 235 | 3.5 | 13.0 | 0.00 | 0.00 | 0.00 | 76 | 1009.2 |
| 20260506115514 | 66 | 245 | 2.6 | 12.2 | 0.00 | 0.00 | 0.00 | 76 | 1009.1 |
| 20260506115013 | 66 | 208 | 4.3 | 12.2 | 0.00 | 0.00 | 0.00 | 76 | 1009.1 |
| 20260506114513 | 66 | 185 | 3.5 | 11.3 | 0.00 | 0.00 | 0.00 | 76 | 1009.0 |
| 20260506114013 | 65 | 248 | 3.5 | 11.3 | 0.00 | 0.00 | 0.00 | 77 | 1009.0 |
| 20260506113514 | 65 | 174 | 3.5 | 10.4 | 0.00 | 0.00 | 0.00 | 77 | 1008.9 |
| 20260506113013 | 65 | 133 | 3.5 | 7.8 | 0.00 | 0.00 | 0.00 | 77 | 1008.9 |
| 20260506112513 | 65 | 128 | 3.5 | 8.7 | 0.00 | 0.00 | 0.00 | 78 | 1008.8 |
| 20260506112012 | 64 | 160 | 0.9 | 6.1 | 0.00 | 0.00 | 0.00 | 79 | 1008.8 |
| 20260506111512 | 64 | 160 | 0.9 | 6.1 | 0.00 | 0.00 | 0.00 | 79 | 1008.8 |
| 20260506111014 | 64 | 159 | 2.6 | 7.0 | 0.00 | 0.00 | 0.00 | 79 | 1008.7 |
| 20260506110514 | 64 | 136 | 1.7 | 7.0 | 0.00 | 0.00 | 0.00 | 79 | 1008.7 |
| 20260506110011 | 64 | 200 | 1.7 | 8.7 | 0.00 | 0.00 | 0.00 | 79 | 1008.7 |
| 20260506105511 | 64 | 225 | 4.3 | 9.6 | 0.00 | 0.00 | 0.00 | 79 | 1008.7 |
| 20260506105011 | 64 | 204 | 0.9 | 9.6 | 0.00 | 0.00 | 0.00 | 79 | 1008.6 |
| 20260506104527 | 64 | 91 | 0.9 | 7.8 | 0.00 | 0.00 | 0.00 | 80 | 1008.6 |
| 20260506104010 | 64 | 131 | 2.6 | 8.7 | 0.00 | 0.00 | 0.00 | 80 | 1008.7 |
| 20260506103510 | 64 | 176 | 1.7 | 8.7 | 0.00 | 0.00 | 0.00 | 80 | 1008.5 |
| 20260506103010 | 64 | 219 | 3.5 | 8.7 | 0.00 | 0.00 | 0.00 | 80 | 1008.5 |
| 20260506102511 | 63 | 209 | 2.6 | 7.8 | 0.00 | 0.00 | 0.00 | 81 | 1008.5 |
| 20260506102009 | 63 | 162 | 1.7 | 7.8 | 0.00 | 0.00 | 0.00 | 81 | 1008.4 |
| 20260506101510 | 63 | 125 | 2.6 | 7.8 | 0.00 | 0.00 | 0.00 | 81 | 1008.4 |
| 20260506101009 | 63 | 97 | 2.6 | 8.7 | 0.00 | 0.00 | 0.00 | 81 | 1008.6 |
| 20260506100508 | 63 | 185 | 3.5 | 8.7 | 0.00 | 0.00 | 0.00 | 81 | 1008.8 |
| 20260506100008 | 63 | 130 | 2.6 | 7.8 | 0.00 | 0.00 | 0.00 | 81 | 1008.7 |
| 20260506095511 | 63 | 155 | 2.6 | 7.8 | 0.00 | 0.00 | 0.00 | 81 | 1008.6 |
| 20260506095009 | 63 | 167 | 3.5 | 7.8 | 0.00 | 0.00 | 0.00 | 82 | 1008.8 |
| 20260506094508 | 63 | 179 | 2.6 | 7.8 | 0.00 | 0.00 | 0.00 | 82 | 1008.8 |
| 20260506094006 | 63 | 203 | 2.6 | 7.8 | 0.00 | 0.00 | 0.00 | 82 | 1008.7 |
| 20260506093508 | 63 | 117 | 0.9 | 11.3 | 0.00 | 0.00 | 0.00 | 81 | 1008.7 |
| 20260506093007 | 63 | 160 | 1.7 | 7.0 | 0.00 | 0.00 | 0.00 | 82 | 1008.6 |
| 20260506092506 | 63 | 134 | 1.7 | 6.1 | 0.00 | 0.00 | 0.00 | 81 | 1008.7 |
| 20260506092006 | 64 | 98 | 1.7 | 11.3 | 0.00 | 0.00 | 0.00 | 81 | 1008.7 |
| 20260506091506 | 64 | 165 | 1.7 | 7.0 | 0.00 | 0.00 | 0.00 | 81 | 1008.5 |
| 20260506091005 | 64 | 192 | 1.7 | 7.0 | 0.00 | 0.00 | 0.00 | 81 | 1008.5 |
| 20260506090509 | 64 | 235 | 1.7 | 7.8 | 0.00 | 0.00 | 0.00 | 81 | 1008.6 |
| 20260506090004 | 64 | 118 | 2.6 | 7.8 | 0.00 | 0.00 | 0.00 | 81 | 1008.7 |
| 20260506085508 | 64 | 221 | 1.7 | 7.8 | 0.00 | 0.00 | 0.00 | 81 | 1008.7 |
| 20260506085004 | 64 | 135 | 1.7 | 8.7 | 0.00 | 0.00 | 0.00 | 81 | 1008.6 |
| 20260506084506 | 64 | 93 | 4.3 | 8.7 | 0.00 | 0.00 | 0.00 | 81 | 1008.6 |
| 20260506084004 | 64 | 106 | 1.7 | 7.8 | 0.00 | 0.00 | 0.00 | 81 | 1008.6 |
| 20260506083503 | 64 | 211 | 2.6 | 7.8 | 0.00 | 0.00 | 0.00 | 81 | 1008.6 |
| 20260506083003 | 64 | 158 | 3.5 | 10.4 | 0.00 | 0.00 | 0.00 | 81 | 1008.6 |
| 20260506082500 | 64 | 120 | 1.7 | 10.4 | 0.00 | 0.00 | 0.00 | 81 | 1008.6 |
| 20260506082100 | 64 | 169 | 1.7 | 7.8 | 0.00 | 0.00 | 0.00 | 82 | 1008.6 |
| 20260506081602 | 64 | 139 | 0.9 | 9.6 | 0.00 | 0.00 | 0.00 | 82 | 1008.7 |
| 20260506081058 | 65 | 118 | 1.7 | 9.6 | 0.00 | 0.00 | 0.00 | 81 | 1008.7 |
| 20260506080558 | 65 | 198 | 3.5 | 9.6 | 0.00 | 0.00 | 0.00 | 81 | 1008.8 |
| 20260506080106 | 65 | 101 | 3.5 | 11.3 | 0.00 | 0.00 | 0.00 | 81 | 1008.8 |
| 20260506073053 | 65 | 157 | 4.3 | 11.3 | 0.00 | 0.00 | 0.00 | 81 | 1008.9 |
| 20260506072553 | 65 | 146 | 2.6 | 8.7 | 0.00 | 0.00 | 0.00 | 81 | 1008.8 |
| 20260506072052 | 65 | 162 | 2.6 | 8.7 | 0.00 | 0.00 | 0.00 | 80 | 1008.9 |
| 20260506071603 | 66 | 139 | 3.5 | 11.3 | 0.00 | 0.00 | 0.00 | 80 | 1008.9 |
| 20260506071050 | 66 | 141 | 3.5 | 11.3 | 0.00 | 0.00 | 0.00 | 80 | 1008.9 |